Showing default

COSMOS 2249, 22650

Orbit data source: Space-Track

COSMOS 2249, 22650 is a payload satellite owned by VKS (CIS) in LEO that was launched on Tue, 11 May 1993 UTC via a TSIKLON-3 launch vehicle from the Plesetsk Missile And Space Complex (PKMTR). Payload-class satellites include a variety of spacecraft equipped with specific instruments for various scientific and technological missions. These include communications satellites like Starlink; space stations such as the ISS; scientific satellites like the Hubble; Earth observation satellites from companies like Planet Labs, Umbra, and HawkEye 360; GPS; miniature CubeSats for education and research; and military/defense satellites.

Loading next visibility...
Identifier
22650, 1993-030E
Orbit
LEO
Country
Flag of CISCIS
Related business
Manufacturer
NPO PM
Mission
Defense Communications
Bus & Motor
STRELA-3, Unknown motor
Mass
225 kg wet, 225 kg dry
Launch date (UTC)
1993-05-11 (33 years ago)
Launch vehicle
TSIKLON-3
Launch site
Plesetsk Missile And Space Complex (PKMTR)
Object type
Payload
Rocket body
Debris
Shape & HBR
Cyl, 0.8 m
Radar Cross Section
1.257 m², Medium (>0.1 m² and < 1m²)

Expand to show TLE details & history
Last TLE update: 6 hours ago

TLE from 6 hours ago
0 COSMOS 2249
1 22650U 93030E   26037.55844017  .00000017  00000-0  37605-4 0  9995
2 22650  82.5828  46.8333 0006463 229.0720 251.4273 12.63183733509531
Epoch: 2026-02-06T13:24Z
TLE epoch observation values (Epoch: 2026-02-06T13:24:09.230Z)
Latitude
58.8537°
Longitude
-123.27711°
Altitude
1,421.348 km
Speed
7.155 km/s
True Right ascension
14h 17m 49s
True Declination
58° 42' 51"
Sunlit
Object was in daylight at epoch
Visualization orbit readout
Latitude
Unknown
Longitude
Unknown
Altitude
Unknown
Speed
Unknown
Apparent Right ascension
Unknown
Apparent Declination
Unknown
Sunlit
N/A
Visualization observer readout
Local Sidereal Time
21:47:06
Azimuth
Unknown
Elevation
Unknown
Doppler factor
Unknown
Orbital elements
Apogee altitude
1,412.182 km
Perigee altitude
1,402.119 km
Semi-major axis
7,785.287 km
Eccentricity
0.00065
Inclination
82.5828°
RAAN
46.8333°
Arg. of periapsis
229.072°
True anomaly
251.35711°
Mean anomaly
251.4273°
Eccentric anomaly
251.39221°
Mean motion
3.15959 °/min
Orbital period
113.94 mins
BSTAR
0.000037605
Loading maneuver chart data...
Computing Atmospheric mass density...
Loading historical data...
Loading historical data...
Loading historical data...
Loading historical data...
Loading historical data...
Loading historical data...
Loading historical data...

Documentation

Showing up to 5 results
|